Regional Weather Roundup
Issued by NWS

Home | Current Version | Previous Version | Graphics & Text | Print | Product List | Glossary On
Versions: 1 2 3 4 5 6 7 8 9 10 11 12 13 14 15 16 17 18 19 20 21 22 23 24 25 26 27 28 29 30 31 32 33 34 35 36 37 38 39 40 41 42 43 44 45 46 47 48 49 50
000
ASUS43 KLOT 042100
RWRIL

ILLINOIS REGIONAL WEATHER ROUNDUP
NATIONAL WEATHER SERVICE CHICAGO/ROMEOVILLE IL
400 PM CDT SAT JUL 04 2015

NOTE: "FAIR" INDICATES FEW OR NO CLOUDS BELOW 12,000 FEET WITH NO
SIGNIFICANT WEATHER AND/OR OBSTRUCTIONS TO VISIBILITY.

* THESE STATIONS ARE NOT UNDER NWS QUALITY CONTROL. THEY ALSO MAY NOT
  REPORT WEATHER SUCH AS PRECIPITATION OR FOG.

ILZ001-002-007-009-015-016-024-042200-
NORTHWEST ILLINOIS

CITY           SKY/WX    TMP DP  RH WIND       PRES   REMARKS
MOLINE         SUNNY     81  60  48 SW8       30.00S HX  82
STERLING*      SUNNY     82  61  47 SW5       30.01S HX  83
$$

ILZ003-004-008-010-011-017-018-042200-
NORTH CENTRAL ILLINOIS

CITY           SKY/WX    TMP DP  RH WIND       PRES   REMARKS
ROCKFORD       MOSUNNY   81  61  50 W5        30.01S HX  82
$$

ILZ005-006-012>014-019>023-042200-
NORTHEAST ILLINOIS

CITY           SKY/WX    TMP DP  RH WIND       PRES   REMARKS
CHICAGO-OHARE  MOSUNNY   81  53  37 CALM      29.99S HX  80
CHICAGO-MIDWAY MOSUNNY   83  58  42 SW8       29.99S HX  83
AURORA         SUNNY     80  56  43 W8        30.01F HX  80
WAUKEGAN       SUNNY     74  57  55 SE10      29.99F
DUPAGE AIRPORT SUNNY     80  58  46 SW9       30.00S HX  80
WHEELING       SUNNY     81  56  42 VRB6      30.00F HX  81
NORTHERLY ISL    N/A     71  59  65 NE2         N/A
$$

LMZ740>746-042200-
SOUTHERN LAKE MICHIGAN

STATION/POSITION SKY/WX   TEMP    WIND        PRES    VSBY  WAVE
                          AIR SEA DIR/SP/G                  HT/PER
                          (F)     (DEG/KT/KT) (MB)    (MI)  (FT/S)
HARRISON CRIB              67      90/  9/ 10   N/A
BURNHAM HARBOR             70      80/  2/  4   N/A
CALUMET HARBOR             71      50/  7/  9   N/A
BURNS HARBOR               71      70/  9/ 10 1016.6F
MICHIGAN CITY              67      20/  6/  7   N/A
MICHIGAN CITY 6N           68 67   70/  4/  6   N/A           1
ST. JOSEPH                 66 66                N/A           0
$$

ILZ025>027-034>036-040-047-049-050-058-095>099-042200-
WEST-CENTRAL ILLINOIS

CITY           SKY/WX    TMP DP  RH WIND       PRES   REMARKS
QUINCY         SUNNY     82  60  47 CALM      29.99F HX  82
$$

ILZ028>032-037-038-041>044-048-051>054-059>061-042200-
CENTRAL ILLINOIS

CITY           SKY/WX    TMP DP  RH WIND       PRES   REMARKS
DECATUR        SUNNY     81  63  54 N5        30.00F HX  82
PEORIA         SUNNY     81  56  42 CALM      30.01S HX  81
SPRINGFIELD    SUNNY     83  61  47 CALM      30.00F HX  83
TAYLORVILLE    NOT AVBL
$$

ILZ033-039-045-046-055>057-062-063-042200-
EAST-CENTRAL ILLINOIS

CITY           SKY/WX    TMP DP  RH WIND       PRES   REMARKS
CHAMPAIGN      SUNNY     79  59  50 CALM      30.01F HX  80
RANTOUL*       MOSUNNY   81  63  55 S3        30.01F HX  82
MATTOON        MOSUNNY   79  61  53 N3        30.00F HX  80
$$

ILZ079-100>102-042200-
SOUTHWEST ILLINOIS

CITY           SKY/WX    TMP DP  RH WIND       PRES   REMARKS
BELLEVILLE     SUNNY     83  65  55 VRB5      29.98S HX  84
CAHOKIA*       MOSUNNY   83  60  45 CALM      29.98F HX  83
$$

ILZ064>066-069>071-074>076-080>082-084>086-088>090-092>094-042200-
SOUTH-CENTRAL ILLINOIS

CITY           SKY/WX    TMP DP  RH WIND       PRES   REMARKS
CARBONDALE     PTSUNNY   82  64  54 VRB6      29.98S HX  83
MARION         PTSUNNY   82  64  54 NE6       29.99F HX  84
MT. VERNON     MOSUNNY   81  61  50 NE5       29.99F HX  81
$$

ILZ067-068-072-073-078-083-087-091-042200-
SOUTHEAST ILLINOIS

CITY           SKY/WX    TMP DP  RH WIND       PRES   REMARKS
LAWRENCEVILLE  MOSUNNY   80  65  59 NE5       29.98F HX  82
$$

ABBREVIATIONS USED IN REMARKS
   TC - TEMPERATURE IN CELSIUS
  WCI - WIND CHILL INDEX
   HX - HEAT INDEX
  VSB - VISIBILITY
$$




USA.gov is the U.S. government's official web portal to all federal, state and local government web resources and services.